TimeCDT,TemperatureF,Dew PointF,Humidity,Sea Level PressureIn,VisibilityMPH,Wind Direction,Wind SpeedMPH,Gust SpeedMPH,PrecipitationIn,Events,Conditions,WindDirDegrees,DateUTC
12:53 AM,63.0,59.0,87,30.15,10.0,Calm,Calm,-,N/A,,Clear,0,2013-05-27 05:53:00
1:53 AM,62.1,57.9,86,30.14,10.0,Calm,Calm,-,N/A,,Clear,0,2013-05-27 06:53:00
2:53 AM,61.0,57.9,90,30.14,10.0,Calm,Calm,-,N/A,,Clear,0,2013-05-27 07:53:00
3:53 AM,61.0,57.0,87,30.15,10.0,East,3.5,-,N/A,,Clear,90,2013-05-27 08:53:00
4:53 AM,59.0,57.0,93,30.17,10.0,SE,3.5,-,N/A,,Clear,130,2013-05-27 09:53:00
5:53 AM,59.0,57.0,93,30.19,10.0,Calm,Calm,-,N/A,,Clear,0,2013-05-27 10:53:00
6:53 AM,62.1,57.0,84,30.20,10.0,East,3.5,-,N/A,,Clear,80,2013-05-27 11:53:00
7:53 AM,64.9,57.9,78,30.22,10.0,Calm,Calm,-,N/A,,Clear,0,2013-05-27 12:53:00
8:53 AM,71.1,59.0,66,30.21,10.0,NE,3.5,-,N/A,,Clear,50,2013-05-27 13:53:00
9:53 AM,78.1,59.0,52,30.18,10.0,Calm,Calm,-,N/A,,Clear,0,2013-05-27 14:53:00
10:53 AM,81.0,62.1,52,30.17,10.0,Calm,Calm,-,N/A,,Clear,0,2013-05-27 15:53:00
11:53 AM,82.0,57.0,42,30.16,10.0,SW,10.4,-,N/A,,Scattered Clouds,220,2013-05-27 16:53:00
12:53 PM,82.9,61.0,47,30.15,10.0,WSW,6.9,-,N/A,,Scattered Clouds,240,2013-05-27 17:53:00
1:53 PM,84.9,59.0,41,30.12,10.0,South,8.1,-,N/A,,Partly Cloudy,180,2013-05-27 18:53:00
2:53 PM,84.9,57.0,38,30.11,10.0,SSW,8.1,-,N/A,,Partly Cloudy,200,2013-05-27 19:53:00
3:53 PM,84.9,55.9,37,30.10,10.0,South,8.1,-,N/A,,Scattered Clouds,190,2013-05-27 20:53:00
4:53 PM,84.9,57.0,38,30.10,10.0,SSW,6.9,-,N/A,,Scattered Clouds,200,2013-05-27 21:53:00
5:53 PM,82.9,57.9,42,30.09,10.0,SSW,5.8,-,N/A,,Clear,210,2013-05-27 22:53:00
7:53 PM,75.0,64.0,69,30.08,10.0,Calm,Calm,-,N/A,,Clear,0,2013-05-28 00:53:00
8:53 PM,73.0,63.0,71,30.09,10.0,Calm,Calm,-,N/A,,Clear,0,2013-05-28 01:53:00
9:53 PM,71.1,63.0,75,30.10,10.0,Calm,Calm,-,N/A,,Clear,0,2013-05-28 02:53:00
10:53 PM,68.0,63.0,84,30.11,10.0,Calm,Calm,-,N/A,,Clear,0,2013-05-28 03:53:00
11:53 PM,66.9,62.1,84,30.11,10.0,Calm,Calm,-,N/A,,Clear,0,2013-05-28 04:53:00